• Processing (Info)

  • MPEC 2019-S151 : 2019 SQ6

    The following Minor Planet Electronic Circular may be linked-to from your own Web pages, but must not otherwise be redistributed electronically.

    A form allowing access to any MPEC is at the bottom of this page.


    Read MPEC 2019-S150 Read MPEC 2019-S152


    M.P.E.C. 2019-S151                           Issued 2019 September 29, 14:16 UT
    
         The Minor Planet Electronic Circulars contain information on unusual
             minor planets and routine data on comets.  They are published
        on behalf of Division F of the International Astronomical Union by the
              Minor Planet Center, Smithsonian Astrophysical Observatory,
                              Cambridge, MA 02138, U.S.A.
    
                 Prepared using the Tamkin Foundation Computer Network
    
                                  MPC@CFA.HARVARD.EDU
                URL https://www.minorplanetcenter.net/    ISSN 1523-6714
    
                                    2019 SQ6                                 
    
    
    Observations:
         K19S06Q* C2019 09 28.26954 00 37 52.40 +23 50 24.0          20.5 GVES151G96
         K19S06Q  C2019 09 28.27522 00 37 57.02 +23 50 23.0          20.2 GVES151G96
         K19S06Q  C2019 09 28.28088 00 38 01.67 +23 50 21.8          20.3 GVES151G96
         K19S06Q  C2019 09 28.33570000 38 45.63 +23 50 01.4          20.2 GVES151H01
         K19S06Q  C2019 09 28.33901300 38 48.32 +23 50 00.3          20.1 GVES151H01
         K19S06Q  C2019 09 28.34981400 38 57.10 +23 49 55.9          20.1 GVES151H01
         K19S06Q  C2019 09 28.35750400 39 03.37 +23 49 52.8          20.1 GVES151H01
         K19S06Q  C2019 09 28.38881 00 39 29.34 +23 49 44.0          20.0 GVES151I52
         K19S06Q  C2019 09 28.38979 00 39 30.12 +23 49 43.4          20.2 GVES151I52
         K19S06Q  C2019 09 28.39076 00 39 30.86 +23 49 43.1          20.4 GVES151I52
         K19S06Q  C2019 09 28.39174 00 39 31.71 +23 49 42.9          19.9 GVES151I52
         K19S06Q pC2019 09 28.95754900 47 36.54 +23 45 16.9          20.2 GVES151L01
         K19S06Q KC2019 09 28.95952900 47 38.08 +23 45 16.2          20.2 GVES151L01
         K19S06Q KC2019 09 28.96151100 47 39.58 +23 45 15.7          20.1 GVES151L01
         K19S06Q KC2019 09 28.97181 00 47 48.08 +23 45 14.3          20.7 VqES151K63
         K19S06Q KC2019 09 28.97425 00 47 49.94 +23 45 12.6          20.2 VqES151K63
         K19S06Q KC2019 09 28.97633 00 47 51.63 +23 45 11.4          20.1 VqES151K63
         K19S06Q KC2019 09 29.10388 00 49 29.93 +23 43 51.8          20.1 GVES151104
         K19S06Q KC2019 09 29.10774 00 49 32.89 +23 43 48.7          20.1 GVES151104
         K19S06Q KC2019 09 29.11159 00 49 35.94 +23 43 45.4          19.9 GVES151104
         K19S06Q  C2019 09 29.49928 00 54 43.06 +23 40 10.1          20.1 GVES151I52
         K19S06Q  C2019 09 29.50026 00 54 43.74 +23 40 09.6                VES151I52
         K19S06Q  C2019 09 29.50325 00 54 46.07 +23 40 05.3          20.3 GVES151I52
    
    Observer details:
    104 San Marcello Pistoiese.  Observers P. Bacci, M. Maestripieri.  Measurers P. 
       Bacci, L. Tesi, G. Fagioli.  0.60-m reflector + CCD.
    G96 Mt. Lemmon Survey.  Observer G. J. Leonard.  Measurers B. M. Africano, E. 
       J. Christensen, G. A. Farneth, D. C. Fuls, A. R. Gibbs, A. D. Grauer, H. 
       Groeller, R. A. Kowalski, S. M. Larson, G. J. Leonard, T. A. Pruyne, D. 
       Rankin, R. L. Seaman, F. C. Shelly.  1.5-m reflector + 10K CCD.
    H01 Magdalena Ridge Observatory, Socorro.  Observers W. H. Ryan, E. V. Ryan.  
        Measurer W. H. Ryan.  2.4-m f/8.9 Ritchey-Chretien + CCD.
    I52 Steward Observatory, Mt. Lemmon Station.  Observers D. C. Fuls, D. Rankin.  
        Measurers B. M. Africano, E. J. Christensen, G. A. Farneth, D. C. Fuls, A. 
       R. Gibbs, A. D. Grauer, H. Groeller, R. A. Kowalski, S. M. Larson, G. J. 
       Leonard, T. A. Pruyne, D. Rankin, R. L. Seaman, F. C. Shelly.  1.0-m 
       reflector + CCD.
    K63 G. Pascoli Observatory, Castelvecchio Pascoli.  Observer R. Bacci.  0.41-m 
       f/3.2 Newtonian reflector + CCD.
    L01 Visnjan Observatory, Tican.  Observers K. Korlevic, F. Valentine, G. 
       Kervina.  Measurer K. Korlevic.  1.0-m f/2.9 reflector + CCD.
    
    Orbital elements:
    2019 SQ6                                                 Earth MOID = 0.0404 AU
    Epoch 2019 Apr. 27.0 TT = JDT 2458600.5                 Bell
    M 315.33099              (2000.0)            P               Q
    n   0.31683252     Peri.  136.19592     +0.98503503     +0.17136895
    a   2.1309972      Node   213.94938     -0.16581425     +0.91310643
    e   0.5122068      Incl.    1.88841     -0.04702787     +0.36995855
    P   3.11           H   25.6           G   0.15           U   7
    Residuals in seconds of arc
    190928 G96  0.1+  0.0     190928 I52  0.0   0.3-    190928 K63  0.9+  0.1+
    190928 G96  0.3-  0.1+    190928 I52  0.6-  0.1-    190929 104  0.2+  0.0
    190928 G96  0.1+  0.1+    190928 I52  0.1+  0.2+    190929 104  0.4-  0.2-
    190928 H01  0.0   0.0     190928 L01  0.2-  0.6-    190929 104  0.4+  0.6-
    190928 H01  0.0   0.1+    190928 L01  0.1-  0.3-    190929 I52  0.3+  0.3+
    190928 H01  0.0   0.0     190928 L01  0.6-  0.1+    190929 I52  0.6-  0.7+
    190928 H01  0.3+  0.1+    190928 K63  0.1+  0.8+    190929 I52  0.3+  0.7-
    190928 I52  0.3+  0.1-    190928 K63  0.2-  0.2+
    
    Ephemeris:
    2019 SQ6                 a,e,i = 2.13, 0.51, 2                   q = 1.0395
    Date    TT    R. A. (2000) Decl.     Delta      r    Elong.  Phase     V
    2019 08 30    18 26 23.5 -03 39 03   0.09140 1.0572   118.9    56.7    22.6
    ...
    2019 09 14    20 16 13.7 +09 58 08   0.04999 1.0395   130.9    47.0    21.0
    ...
    2019 09 22    22 42 57.2 +21 24 49   0.04389 1.0429   151.9    26.9    20.1
    ...
    2019 09 28    00 33 49.0 +23 51 55   0.05274 1.0512   157.4    21.5    20.4
    2019 09 29    00 48 10.0 +23 45 54   0.05510 1.0530   157.3    21.6    20.5
    2019 09 30    01 01 14.4 +23 35 08   0.05765 1.0550   157.0    21.8    20.6
    ...
    2019 10 06    01 57 22.1 +21 46 11   0.07598 1.0696   155.6    22.7    21.2
    ...
    2019 10 14    02 34 49.6 +19 18 58   0.1056  1.0958   157.3    20.5    21.9
    ...
    2019 10 29    02 58 59.9 +16 15 55   0.1723  1.1626   168.0    10.3    22.8
    
    A. U. Tomatic                (C) Copyright 2019 MPC           M.P.E.C. 2019-S151
    


    Read MPEC 2019-S150 Read MPEC 2019-S152


    MPEC number:

    Enter an MPEC number in one of the following forms:

    • 1997-B01 (the full form)
    • J97B01 (the packed version of the full form)
    • B01 (the abbreviated form)